Hourly Data Report for October 04, 2017

All times are specified in Local Standard Time (LST). Add 1 hour to adjust for Daylight Saving Time where and when it is observed.

TERRACE A
BRITISH COLUMBIA

54°28'07.000" N
128°34'42.000" W
217.30 m
1068134
71951
YXT

Download Data

Hourly Data (October 2017)
Hourly Data Report for October 4, 2017
Temp Definition
°C
Dew Point Temp Definition
°C
Rel Hum Definition
%
Wind Dir Definition
10's deg

Wind Spd Definition
km/h
Visibility Definition
km
Stn Press Definition
kPa
Hmdx Definition


Wind Chill Definition


Weather Definition


TIME
00:00 Legend Double Dagger 4.0 3.0 93 2 5 32.2 100.02     LegendNANA
01:00 Legend Double Dagger 4.3 3.2 92 1 12 32.2 100.04     Mainly Clear
02:00 Legend Double Dagger 3.6 2.9 95 2 11 32.2 100.04     LegendNANA
03:00 Legend Double Dagger 3.9 3.0 94 36 15 32.2 100.03     LegendNANA
04:00 Legend Double Dagger 3.3 2.5 94 36 12 32.2 100.01     Clear
05:00 Legend Double Dagger 2.4 1.7 95 4 8 32.2 100.00     LegendNANA
06:00 Legend Double Dagger 2.8 1.9 94 35 14 32.2 99.96     LegendNANA
07:00 Legend Double Dagger 2.4 2.0 97 1 12 32.2 99.96     Clear
08:00 Legend Double Dagger 2.8 2.3 96 2 16 8.1 99.97     LegendNANA
09:00 Legend Double Dagger 4.2 2.5 88 36 15 16.1 99.92     LegendNANA
10:00 Legend Double Dagger 6.4 3.2 80 1 13 32.2 99.90     Mainly Clear
11:00 Legend Double Dagger 8.1 3.1 71 36 13 32.2 99.89     LegendNANA
12:00 Legend Double Dagger 9.5 3.9 68 36 2 32.2 99.81     LegendNANA
13:00 Legend Double Dagger 11.3 4.1 61 1 4 32.2 99.76     Clear
14:00 Legend Double Dagger 12.9 4.4 56 36 2 32.2 99.70     LegendNANA
15:00 Legend Double Dagger 13.8 4.4 53 36 2 32.2 99.65     LegendNANA
16:00 Legend Double Dagger 14.1 4.8 53 26 4 32.2 99.60     Clear
17:00 Legend Double Dagger 13.4 5.5 58 29 3 32.2 99.57     LegendNANA
18:00 Legend Double Dagger 9.9 6.2 78 0 1 32.2 99.58     LegendNANA
19:00 Legend Double Dagger 7.5 5.6 88 3 3 32.2 99.61     Clear
20:00 Legend Double Dagger 5.5 4.5 93 36 1 32.2 99.62     LegendNANA
21:00 Legend Double Dagger 4.8 3.6 92 36 2 32.2 99.64     LegendNANA
22:00 Legend Double Dagger 3.8 3.2 96 7 4 32.2 99.63     Clear
23:00 Legend Double Dagger 3.3 2.7 96 36 1 32.2 99.67     LegendNANA

Notes on Data Quality.

Legend

  • E = Estimated
  • M = Missing
  • NA = Not Available
  • ‡ = Partner data that is not subject to review by the National Climate Archives
Date modified: